{"data":{"norad_id":55247,"intl_designator":"2022-144H","name":"LINUSS2","alt_names":[],"object_type":"PAYLOAD","status":"ACTIVE","operator":null,"country":"US","launch_date":"2022-11-01","launch_site_code":"AFETR","launch_vehicle":null,"mission":null,"orbit_class":"UNKNOWN","rcs_meters":null,"size_class":null,"mass_kg":null,"dimensions":null,"purposes":[],"wikipedia_slug":null,"has_3d_model":false,"image_url":null,"decayed_at":null,"tle_current":{"epoch":"2026-05-25T00:11:15.946080Z","epoch_age_seconds":74115,"freshness":"FRESH","line1":"1 55247U 22144H   26145.00782345 -.00000245  00000+0  00000+0 0  9993","line2":"2 55247   5.3265  64.3491 0008994 311.8034 201.2798  0.99053278 11489","mean_motion":0.99053278,"eccentricity":0.0008994,"inclination_deg":5.3265,"raan_deg":64.3491,"arg_perigee_deg":311.8034,"mean_anomaly_deg":201.2798,"bstar":0,"rev_number":1148,"period_min":1453.7630950487,"perigee_km":36093.450358136,"apogee_km":36169.917023595,"semimajor_km":42509.820690865,"source":"CELESTRAK","updated_at":"2026-05-25T13:37:58.878257Z"}}}